Time,TemperatureF,DewpointF,PressureIn,WindDirection,WindDirectionDegrees,WindSpeedMPH,WindSpeedGustMPH,Humidity,HourlyPrecipIn,Conditions,Clouds,dailyrainin,SoftwareType,DateUTC
2013-09-03 00:01:00,74.0,73.0,29.91,North,0,0.0,0.0,98,0.00,,,0.00,Meteo,2013-09-03 04:01:00,
2013-09-03 00:02:00,74.0,73.0,29.91,North,0,0.0,0.0,98,0.00,,,0.00,Meteo,2013-09-03 04:02:00,
2013-09-03 00:05:00,74.0,73.0,29.91,North,0,0.0,0.0,98,0.00,,,0.00,Meteo,2013-09-03 04:05:00,
2013-09-03 00:07:00,74.0,73.0,29.91,North,0,0.0,0.0,98,0.00,,,0.00,Meteo,2013-09-03 04:07:00,
2013-09-03 00:10:00,74.0,73.0,29.91,SW,229,1.0,2.0,98,0.00,,,0.00,Meteo,2013-09-03 04:10:00,
2013-09-03 00:15:00,74.0,73.0,29.90,North,0,0.0,0.0,98,0.00,,,0.00,Meteo,2013-09-03 04:15:00,
2013-09-03 00:20:00,74.0,73.0,29.90,SW,229,1.0,2.0,98,0.00,,,0.00,Meteo,2013-09-03 04:20:00,
2013-09-03 00:25:00,74.0,73.0,29.90,SW,229,0.0,1.0,98,0.00,,,0.00,Meteo,2013-09-03 04:25:00,
2013-09-03 00:30:00,74.0,73.0,29.90,North,0,0.0,0.0,98,0.00,,,0.00,Meteo,2013-09-03 04:30:00,
2013-09-03 00:35:00,74.0,73.0,29.90,SW,229,0.0,1.0,98,0.00,,,0.00,Meteo,2013-09-03 04:35:00,
2013-09-03 00:41:00,74.0,73.0,29.90,SW,229,2.0,3.0,98,0.00,,,0.00,Meteo,2013-09-03 04:41:00,
2013-09-03 00:46:00,74.0,73.0,29.90,SW,229,2.0,5.0,98,0.00,,,0.00,Meteo,2013-09-03 04:46:00,
2013-09-03 00:51:00,74.0,73.0,29.90,SW,229,2.0,3.0,98,0.00,,,0.00,Meteo,2013-09-03 04:51:00,
2013-09-03 00:56:00,74.0,73.0,29.90,SW,229,1.0,2.0,98,0.00,,,0.00,Meteo,2013-09-03 04:56:00,
2013-09-03 01:01:00,74.0,73.0,29.90,SW,229,1.0,2.0,98,0.00,,,0.00,Meteo,2013-09-03 05:01:00,
2013-09-03 01:06:00,73.0,72.0,29.90,SW,229,2.0,5.0,98,0.00,,,0.00,Meteo,2013-09-03 05:06:00,
2013-09-03 01:12:00,74.0,73.0,29.90,SW,228,2.0,5.0,98,0.00,,,0.00,Meteo,2013-09-03 05:12:00,
2013-09-03 01:17:00,74.0,73.0,29.90,SW,226,2.0,2.0,98,0.00,,,0.00,Meteo,2013-09-03 05:17:00,
2013-09-03 01:22:00,74.0,73.0,29.90,SW,220,3.0,5.0,98,0.00,,,0.00,Meteo,2013-09-03 05:22:00,
2013-09-03 01:27:00,74.0,73.0,29.90,SW,220,2.0,4.0,98,0.00,,,0.00,Meteo,2013-09-03 05:27:00,
2013-09-03 01:32:00,74.0,73.0,29.90,SW,219,2.0,4.0,98,0.00,,,0.00,Meteo,2013-09-03 05:32:00,
2013-09-03 01:37:00,74.0,73.0,29.90,SW,219,2.0,4.0,98,0.00,,,0.00,Meteo,2013-09-03 05:37:00,
2013-09-03 01:43:00,74.0,73.0,29.89,SW,220,1.0,2.0,98,0.00,,,0.00,Meteo,2013-09-03 05:43:00,
2013-09-03 01:48:00,74.0,73.0,29.88,SW,219,2.0,3.0,98,0.00,,,0.00,Meteo,2013-09-03 05:48:00,
2013-09-03 01:53:00,74.0,73.0,29.88,SW,219,3.0,5.0,98,0.00,,,0.00,Meteo,2013-09-03 05:53:00,
2013-09-03 01:58:00,74.0,73.0,29.88,SW,219,1.0,2.0,98,0.00,,,0.00,Meteo,2013-09-03 05:58:00,
2013-09-03 02:03:00,74.0,73.0,29.88,North,0,0.0,0.0,98,0.00,,,0.00,Meteo,2013-09-03 06:03:00,
2013-09-03 02:09:00,74.0,73.0,29.88,North,0,0.0,0.0,98,0.00,,,0.00,Meteo,2013-09-03 06:09:00,
2013-09-03 02:14:00,74.0,73.0,29.89,SW,219,1.0,3.0,98,0.00,,,0.00,Meteo,2013-09-03 06:14:00,
2013-09-03 02:19:00,74.0,73.0,29.89,North,0,0.0,0.0,98,0.00,,,0.00,Meteo,2013-09-03 06:19:00,
2013-09-03 02:24:00,73.0,72.0,29.89,SW,219,1.0,3.0,98,0.00,,,0.00,Meteo,2013-09-03 06:24:00,
2013-09-03 02:29:00,73.0,72.0,29.88,SW,219,1.0,3.0,98,0.00,,,0.00,Meteo,2013-09-03 06:29:00,
2013-09-03 02:34:00,74.0,73.0,29.88,SW,218,1.0,2.0,98,0.00,,,0.00,Meteo,2013-09-03 06:34:00,
2013-09-03 02:40:00,74.0,73.0,29.88,SW,218,1.0,3.0,98,0.00,,,0.00,Meteo,2013-09-03 06:40:00,
2013-09-03 02:45:00,74.0,73.0,29.87,SW,218,2.0,5.0,98,0.00,,,0.00,Meteo,2013-09-03 06:45:00,
2013-09-03 02:50:00,74.0,73.0,29.87,SW,218,1.0,2.0,98,0.00,,,0.00,Meteo,2013-09-03 06:50:00,
2013-09-03 02:55:00,74.0,73.0,29.87,SW,218,1.0,2.0,98,0.00,,,0.00,Meteo,2013-09-03 06:55:00,
2013-09-03 03:00:00,74.0,73.0,29.87,North,0,0.0,0.0,98,0.00,,,0.00,Meteo,2013-09-03 07:00:00,
2013-09-03 03:05:00,74.0,73.0,29.87,SW,218,1.0,2.0,98,0.00,,,0.00,Meteo,2013-09-03 07:05:00,
2013-09-03 03:11:00,74.0,73.0,29.87,SW,218,1.0,1.0,98,0.00,,,0.00,Meteo,2013-09-03 07:11:00,
2013-09-03 03:16:00,74.0,73.0,29.87,SW,218,3.0,5.0,98,0.00,,,0.00,Meteo,2013-09-03 07:16:00,
2013-09-03 03:21:00,74.0,73.0,29.87,SW,218,1.0,2.0,98,0.00,,,0.00,Meteo,2013-09-03 07:21:00,
2013-09-03 03:26:00,74.0,73.0,29.87,SW,218,2.0,3.0,98,0.00,,,0.00,Meteo,2013-09-03 07:26:00,
2013-09-03 03:31:00,74.0,73.0,29.87,SW,218,2.0,3.0,98,0.00,,,0.00,Meteo,2013-09-03 07:31:00,
2013-09-03 03:36:00,74.0,73.0,29.87,SSW,212,0.0,1.0,98,0.00,,,0.00,Meteo,2013-09-03 07:36:00,
2013-09-03 03:42:00,74.0,73.0,29.87,SSW,212,1.0,2.0,98,0.00,,,0.00,Meteo,2013-09-03 07:42:00,
2013-09-03 03:47:00,74.0,73.0,29.87,SSW,212,2.0,3.0,98,0.00,,,0.00,Meteo,2013-09-03 07:47:00,
2013-09-03 03:52:00,74.0,73.0,29.87,SSW,213,1.0,2.0,98,0.00,,,0.00,Meteo,2013-09-03 07:52:00,
2013-09-03 03:57:00,74.0,73.0,29.87,SSW,213,2.0,4.0,98,0.00,,,0.00,Meteo,2013-09-03 07:57:00,
2013-09-03 04:02:00,74.0,73.0,29.87,SSW,213,1.0,3.0,98,0.00,,,0.00,Meteo,2013-09-03 08:02:00,
2013-09-03 04:08:00,74.0,73.0,29.87,SSW,213,1.0,2.0,98,0.00,,,0.00,Meteo,2013-09-03 08:08:00,
2013-09-03 04:13:00,74.0,73.0,29.87,SW,215,1.0,2.0,98,0.00,,,0.00,Meteo,2013-09-03 08:13:00,
2013-09-03 04:18:00,74.0,73.0,29.87,SW,215,1.0,2.0,98,0.00,,,0.00,Meteo,2013-09-03 08:18:00,
2013-09-03 04:23:00,73.0,72.0,29.87,SW,215,1.0,2.0,98,0.00,,,0.00,Meteo,2013-09-03 08:23:00,
2013-09-03 04:28:00,73.0,72.0,29.87,SW,215,1.0,2.0,98,0.00,,,0.00,Meteo,2013-09-03 08:28:00,
2013-09-03 04:33:00,73.0,72.0,29.87,SW,215,1.0,3.0,98,0.00,,,0.00,Meteo,2013-09-03 08:33:00,
2013-09-03 04:39:00,73.0,72.0,29.87,SW,215,2.0,3.0,98,0.00,,,0.00,Meteo,2013-09-03 08:39:00,
2013-09-03 04:44:00,73.0,72.0,29.87,SW,215,0.0,1.0,98,0.00,,,0.00,Meteo,2013-09-03 08:44:00,
2013-09-03 04:49:00,73.0,72.0,29.87,SW,215,1.0,2.0,98,0.00,,,0.00,Meteo,2013-09-03 08:49:00,
2013-09-03 04:54:00,73.0,72.0,29.87,SW,215,0.0,1.0,98,0.00,,,0.00,Meteo,2013-09-03 08:54:00,
2013-09-03 04:59:00,73.0,72.0,29.87,SW,216,0.0,1.0,98,0.00,,,0.00,Meteo,2013-09-03 08:59:00,
2013-09-03 05:04:00,73.0,72.0,29.87,North,0,0.0,0.0,98,0.00,,,0.00,Meteo,2013-09-03 09:04:00,
2013-09-03 05:10:00,73.0,72.0,29.87,North,0,0.0,0.0,98,0.00,,,0.00,Meteo,2013-09-03 09:10:00,
2013-09-03 05:15:00,73.0,72.0,29.87,North,0,0.0,0.0,98,0.00,,,0.00,Meteo,2013-09-03 09:15:00,
2013-09-03 05:20:00,72.0,71.0,29.87,North,0,0.0,0.0,98,0.00,,,0.00,Meteo,2013-09-03 09:20:00,
2013-09-03 05:25:00,72.0,71.0,29.87,North,0,0.0,0.0,98,0.00,,,0.00,Meteo,2013-09-03 09:25:00,
2013-09-03 05:30:00,72.0,71.0,29.88,North,0,0.0,0.0,98,0.00,,,0.00,Meteo,2013-09-03 09:30:00,
2013-09-03 05:35:00,72.0,71.0,29.88,North,0,0.0,0.0,98,0.00,,,0.00,Meteo,2013-09-03 09:35:00,
2013-09-03 05:41:00,72.0,71.0,29.88,SW,216,2.0,2.0,98,0.00,,,0.00,Meteo,2013-09-03 09:41:00,
2013-09-03 05:46:00,72.0,71.0,29.87,North,0,0.0,0.0,98,0.00,,,0.00,Meteo,2013-09-03 09:46:00,
2013-09-03 05:51:00,72.0,71.0,29.87,North,0,0.0,0.0,98,0.00,,,0.00,Meteo,2013-09-03 09:51:00,
2013-09-03 05:56:00,72.0,71.0,29.87,North,0,0.0,0.0,98,0.00,,,0.00,Meteo,2013-09-03 09:56:00,
2013-09-03 06:01:00,72.0,71.0,29.88,North,0,0.0,0.0,98,0.00,,,0.00,Meteo,2013-09-03 10:01:00,
2013-09-03 06:07:00,71.0,70.0,29.88,North,0,0.0,0.0,98,0.00,,,0.00,Meteo,2013-09-03 10:07:00,
2013-09-03 06:12:00,71.0,70.0,29.88,North,0,0.0,0.0,98,0.00,,,0.00,Meteo,2013-09-03 10:12:00,
2013-09-03 06:17:00,71.0,70.0,29.88,North,0,0.0,0.0,98,0.00,,,0.00,Meteo,2013-09-03 10:17:00,
2013-09-03 06:22:00,71.0,70.0,29.88,North,0,0.0,0.0,98,0.00,,,0.00,Meteo,2013-09-03 10:22:00,
2013-09-03 06:27:00,71.0,70.0,29.88,North,0,0.0,0.0,98,0.00,,,0.00,Meteo,2013-09-03 10:27:00,
2013-09-03 06:32:00,71.0,70.0,29.88,North,0,0.0,0.0,98,0.00,,,0.00,Meteo,2013-09-03 10:32:00,
2013-09-03 06:38:00,71.0,70.0,29.88,SW,215,1.0,2.0,98,0.00,,,0.00,Meteo,2013-09-03 10:38:00,
2013-09-03 06:43:00,71.0,70.0,29.88,North,0,0.0,0.0,98,0.00,,,0.00,Meteo,2013-09-03 10:43:00,
2013-09-03 06:48:00,71.0,70.0,29.88,North,0,0.0,0.0,98,0.00,,,0.00,Meteo,2013-09-03 10:48:00,
2013-09-03 06:53:00,71.0,70.0,29.88,North,0,0.0,0.0,98,0.00,,,0.00,Meteo,2013-09-03 10:53:00,
2013-09-03 06:58:00,71.0,70.0,29.89,North,0,0.0,0.0,98,0.00,,,0.00,Meteo,2013-09-03 10:58:00,
2013-09-03 07:03:00,71.0,70.0,29.89,North,0,0.0,0.0,98,0.00,,,0.00,Meteo,2013-09-03 11:03:00,
2013-09-03 07:09:00,71.0,70.0,29.89,North,0,0.0,0.0,98,0.00,,,0.00,Meteo,2013-09-03 11:09:00,
2013-09-03 07:14:00,71.0,70.0,29.90,North,0,0.0,0.0,98,0.00,,,0.00,Meteo,2013-09-03 11:14:00,
2013-09-03 07:19:00,71.0,70.0,29.90,North,0,0.0,0.0,98,0.00,,,0.00,Meteo,2013-09-03 11:19:00,
2013-09-03 07:24:00,71.0,70.0,29.90,North,0,0.0,0.0,98,0.00,,,0.00,Meteo,2013-09-03 11:24:00,
2013-09-03 07:29:00,71.0,70.0,29.90,North,0,0.0,0.0,98,0.00,,,0.00,Meteo,2013-09-03 11:29:00,
2013-09-03 07:34:00,71.0,70.0,29.90,North,0,0.0,0.0,98,0.00,,,0.00,Meteo,2013-09-03 11:34:00,
2013-09-03 07:40:00,71.0,70.0,29.90,North,0,0.0,0.0,98,0.00,,,0.00,Meteo,2013-09-03 11:40:00,
2013-09-03 07:45:00,71.0,70.0,29.90,SW,215,1.0,2.0,98,0.00,,,0.00,Meteo,2013-09-03 11:45:00,
2013-09-03 07:50:00,71.0,70.0,29.90,SW,215,1.0,1.0,98,0.00,,,0.00,Meteo,2013-09-03 11:50:00,
2013-09-03 07:55:00,71.0,70.0,29.90,SW,215,0.0,1.0,98,0.00,,,0.00,Meteo,2013-09-03 11:55:00,
2013-09-03 08:00:00,72.0,71.0,29.91,SW,216,1.0,3.0,98,0.00,,,0.00,Meteo,2013-09-03 12:00:00,
2013-09-03 08:06:00,72.0,71.0,29.91,SW,215,2.0,3.0,98,0.00,,,0.00,Meteo,2013-09-03 12:06:00,
2013-09-03 08:11:00,73.0,72.0,29.91,SW,215,2.0,3.0,98,0.00,,,0.00,Meteo,2013-09-03 12:11:00,
2013-09-03 08:16:00,73.0,72.0,29.91,SW,215,1.0,2.0,98,0.00,,,0.00,Meteo,2013-09-03 12:16:00,
2013-09-03 08:21:00,73.0,72.0,29.91,SW,215,1.0,3.0,98,0.00,,,0.00,Meteo,2013-09-03 12:21:00,
2013-09-03 08:26:00,74.0,73.0,29.91,SW,216,2.0,2.0,98,0.00,,,0.00,Meteo,2013-09-03 12:26:00,
2013-09-03 08:31:00,74.0,73.0,29.91,North,0,0.0,0.0,98,0.00,,,0.00,Meteo,2013-09-03 12:31:00,
2013-09-03 08:37:00,74.0,73.0,29.91,North,0,0.0,0.0,98,0.00,,,0.00,Meteo,2013-09-03 12:37:00,
2013-09-03 08:42:00,74.0,73.0,29.91,SW,216,1.0,2.0,98,0.00,,,0.00,Meteo,2013-09-03 12:42:00,
2013-09-03 08:47:00,74.0,73.0,29.90,SW,215,0.0,1.0,98,0.00,,,0.00,Meteo,2013-09-03 12:47:00,
2013-09-03 08:52:00,74.0,73.0,29.90,SW,215,1.0,2.0,98,0.00,,,0.00,Meteo,2013-09-03 12:52:00,
2013-09-03 08:57:00,75.0,74.0,29.91,SW,216,1.0,2.0,98,0.00,,,0.00,Meteo,2013-09-03 12:57:00,
2013-09-03 09:02:00,75.0,74.0,29.91,SW,216,1.0,2.0,98,0.00,,,0.00,Meteo,2013-09-03 13:02:00,
2013-09-03 09:08:00,76.0,75.0,29.91,SW,215,1.0,3.0,98,0.00,,,0.00,Meteo,2013-09-03 13:08:00,
2013-09-03 09:13:00,76.0,75.0,29.91,SW,215,1.0,2.0,98,0.00,,,0.00,Meteo,2013-09-03 13:13:00,
2013-09-03 09:18:00,76.0,75.0,29.91,SW,215,3.0,5.0,98,0.00,,,0.00,Meteo,2013-09-03 13:18:00,
2013-09-03 09:23:00,77.0,76.0,29.91,SW,216,3.0,5.0,98,0.00,,,0.00,Meteo,2013-09-03 13:23:00,
2013-09-03 09:28:00,77.0,76.0,29.91,SW,215,2.0,3.0,97,0.00,,,0.00,Meteo,2013-09-03 13:28:00,
2013-09-03 09:34:00,78.0,76.0,29.91,SSW,212,1.0,2.0,94,0.00,,,0.00,Meteo,2013-09-03 13:34:00,
2013-09-03 09:39:00,78.0,76.0,29.91,SSW,212,1.0,2.0,93,0.00,,,0.00,Meteo,2013-09-03 13:39:00,
2013-09-03 09:44:00,78.0,75.0,29.92,SSW,212,2.0,3.0,90,0.00,,,0.00,Meteo,2013-09-03 13:44:00,
2013-09-03 09:49:00,79.0,75.0,29.92,WSW,240,2.0,3.0,88,0.00,,,0.00,Meteo,2013-09-03 13:49:00,
2013-09-03 09:54:00,79.0,74.0,29.92,NW,304,2.0,7.0,86,0.00,,,0.00,Meteo,2013-09-03 13:54:00,
2013-09-03 09:59:00,80.0,74.0,29.92,WSW,245,3.0,5.0,83,0.00,,,0.00,Meteo,2013-09-03 13:59:00,
2013-09-03 10:05:00,81.0,75.0,29.92,West,262,3.0,6.0,81,0.00,,,0.00,Meteo,2013-09-03 14:05:00,
2013-09-03 10:10:00,81.0,74.0,29.92,West,274,2.0,4.0,79,0.00,,,0.00,Meteo,2013-09-03 14:10:00,
2013-09-03 10:15:00,82.0,74.0,29.93,NNW,339,4.0,7.0,77,0.00,,,0.00,Meteo,2013-09-03 14:15:00,
2013-09-03 10:20:00,82.0,74.0,29.93,NW,320,3.0,5.0,76,0.00,,,0.00,Meteo,2013-09-03 14:20:00,
2013-09-03 10:25:00,83.0,74.0,29.93,WNW,294,5.0,7.0,75,0.00,,,0.00,Meteo,2013-09-03 14:25:00,
2013-09-03 10:30:00,83.0,74.0,29.94,West,272,4.0,8.0,75,0.00,,,0.00,Meteo,2013-09-03 14:30:00,
2013-09-03 10:36:00,84.0,74.0,29.94,West,275,2.0,5.0,73,0.00,,,0.00,Meteo,2013-09-03 14:36:00,
2013-09-03 10:41:00,84.0,74.0,29.94,West,272,6.0,9.0,73,0.00,,,0.00,Meteo,2013-09-03 14:41:00,
2013-09-03 10:46:00,85.0,75.0,29.94,WNW,299,3.0,5.0,71,0.00,,,0.00,Meteo,2013-09-03 14:46:00,
2013-09-03 10:51:00,85.0,74.0,29.94,WNW,290,5.0,8.0,70,0.00,,,0.00,Meteo,2013-09-03 14:51:00,
2013-09-03 10:56:00,85.0,74.0,29.94,West,261,2.0,3.0,69,0.00,,,0.00,Meteo,2013-09-03 14:56:00,
2013-09-03 11:01:00,86.0,74.0,29.94,West,264,3.0,5.0,67,0.00,,,0.00,Meteo,2013-09-03 15:01:00,
2013-09-03 11:07:00,86.0,72.0,29.94,WSW,257,2.0,3.0,64,0.00,,,0.00,Meteo,2013-09-03 15:07:00,
2013-09-03 11:12:00,87.0,76.0,29.94,West,262,2.0,4.0,69,0.00,,,0.00,Meteo,2013-09-03 15:12:00,
2013-09-03 11:17:00,87.0,73.0,29.95,WNW,294,2.0,5.0,63,0.00,,,0.00,Meteo,2013-09-03 15:17:00,
2013-09-03 11:22:00,87.0,73.0,29.95,West,279,4.0,7.0,64,0.00,,,0.00,Meteo,2013-09-03 15:22:00,
2013-09-03 11:27:00,88.0,75.0,29.95,WNW,285,2.0,3.0,66,0.00,,,0.00,Meteo,2013-09-03 15:27:00,
2013-09-03 11:33:00,88.0,73.0,29.95,WNW,302,5.0,7.0,62,0.00,,,0.00,Meteo,2013-09-03 15:33:00,
2013-09-03 11:38:00,88.0,74.0,29.95,West,275,2.0,4.0,63,0.00,,,0.00,Meteo,2013-09-03 15:38:00,
2013-09-03 11:43:00,87.0,73.0,29.95,NW,317,1.0,3.0,63,0.00,,,0.00,Meteo,2013-09-03 15:43:00,
2013-09-03 11:48:00,87.0,73.0,29.95,West,281,5.0,8.0,63,0.00,,,0.00,Meteo,2013-09-03 15:48:00,
2013-09-03 11:53:00,88.0,70.0,29.95,NW,309,4.0,6.0,56,0.00,,,0.00,Meteo,2013-09-03 15:53:00,
2013-09-03 11:58:00,88.0,71.0,29.95,West,275,2.0,3.0,57,0.00,,,0.00,Meteo,2013-09-03 15:58:00,
2013-09-03 12:04:00,89.0,71.0,29.95,West,263,3.0,5.0,55,0.00,,,0.00,Meteo,2013-09-03 16:04:00,
2013-09-03 12:09:00,89.0,69.0,29.95,NNW,329,3.0,7.0,52,0.00,,,0.00,Meteo,2013-09-03 16:09:00,
2013-09-03 12:14:00,89.0,69.0,29.94,West,268,1.0,2.0,51,0.00,,,0.00,Meteo,2013-09-03 16:14:00,
2013-09-03 12:19:00,89.0,69.0,29.94,WSW,250,3.0,3.0,52,0.00,,,0.00,Meteo,2013-09-03 16:19:00,
2013-09-03 12:24:00,90.0,71.0,29.94,WSW,243,2.0,4.0,53,0.00,,,0.00,Meteo,2013-09-03 16:24:00,
2013-09-03 12:29:00,90.0,68.0,29.93,WNW,302,4.0,6.0,49,0.00,,,0.00,Meteo,2013-09-03 16:29:00,
2013-09-03 12:35:00,90.0,68.0,29.93,West,260,5.0,8.0,49,0.00,,,0.00,Meteo,2013-09-03 16:35:00,
2013-09-03 12:40:00,91.0,69.0,29.93,SSW,213,1.0,2.0,48,0.00,,,0.00,Meteo,2013-09-03 16:40:00,
2013-09-03 12:45:00,91.0,68.0,29.93,NW,315,3.0,5.0,47,0.00,,,0.00,Meteo,2013-09-03 16:45:00,
2013-09-03 12:50:00,91.0,69.0,29.93,NNW,337,3.0,5.0,48,0.00,,,0.00,Meteo,2013-09-03 16:50:00,
2013-09-03 12:55:00,91.0,70.0,29.93,North,350,5.0,8.0,50,0.00,,,0.00,Meteo,2013-09-03 16:55:00,
2013-09-03 13:01:00,91.0,69.0,29.93,West,266,4.0,6.0,48,0.00,,,0.00,Meteo,2013-09-03 17:01:00,
2013-09-03 13:06:00,91.0,68.0,29.93,WNW,299,1.0,3.0,47,0.00,,,0.00,Meteo,2013-09-03 17:06:00,
2013-09-03 13:11:00,91.0,67.0,29.93,WNW,285,1.0,3.0,46,0.00,,,0.00,Meteo,2013-09-03 17:11:00,
2013-09-03 13:16:00,91.0,72.0,29.92,West,262,2.0,3.0,53,0.00,,,0.00,Meteo,2013-09-03 17:16:00,
2013-09-03 13:21:00,91.0,67.0,29.92,NW,322,2.0,5.0,45,0.00,,,0.00,Meteo,2013-09-03 17:21:00,
2013-09-03 13:26:00,90.0,66.0,29.92,West,279,2.0,3.0,46,0.00,,,0.00,Meteo,2013-09-03 17:26:00,
2013-09-03 13:32:00,90.0,68.0,29.91,West,272,3.0,7.0,48,0.00,,,0.00,Meteo,2013-09-03 17:32:00,
2013-09-03 13:37:00,90.0,68.0,29.91,West,271,1.0,2.0,48,0.00,,,0.00,Meteo,2013-09-03 17:37:00,
2013-09-03 13:42:00,90.0,69.0,29.91,West,272,0.0,1.0,50,0.00,,,0.00,Meteo,2013-09-03 17:42:00,
2013-09-03 13:47:00,90.0,69.0,29.92,West,268,1.0,3.0,51,0.00,,,0.00,Meteo,2013-09-03 17:47:00,
2013-09-03 13:52:00,90.0,72.0,29.92,West,264,1.0,3.0,55,0.00,,,0.00,Meteo,2013-09-03 17:52:00,
2013-09-03 13:57:00,90.0,70.0,29.91,WSW,253,3.0,6.0,52,0.00,,,0.00,Meteo,2013-09-03 17:57:00,
2013-09-03 14:03:00,90.0,67.0,29.91,North,0,0.0,0.0,47,0.00,,,0.00,Meteo,2013-09-03 18:03:00,
2013-09-03 14:08:00,91.0,71.0,29.91,WSW,254,3.0,8.0,52,0.00,,,0.00,Meteo,2013-09-03 18:08:00,
2013-09-03 14:13:00,91.0,71.0,29.91,WSW,238,2.0,4.0,52,0.00,,,0.00,Meteo,2013-09-03 18:13:00,
2013-09-03 14:18:00,91.0,72.0,29.91,SW,236,7.0,11.0,54,0.00,,,0.00,Meteo,2013-09-03 18:18:00,
2013-09-03 14:23:00,90.0,72.0,29.91,SW,218,3.0,6.0,55,0.00,,,0.00,Meteo,2013-09-03 18:23:00,
2013-09-03 14:28:00,89.0,71.0,29.90,SSW,195,4.0,6.0,56,0.00,,,0.00,Meteo,2013-09-03 18:28:00,
2013-09-03 14:34:00,89.0,71.0,29.90,South,184,2.0,3.0,55,0.00,,,0.00,Meteo,2013-09-03 18:34:00,
2013-09-03 14:39:00,90.0,72.0,29.90,SW,234,4.0,7.0,55,0.00,,,0.00,Meteo,2013-09-03 18:39:00,
2013-09-03 14:44:00,90.0,72.0,29.89,WSW,256,2.0,3.0,55,0.00,,,0.00,Meteo,2013-09-03 18:44:00,
2013-09-03 14:49:00,90.0,73.0,29.89,SW,218,5.0,6.0,57,0.00,,,0.00,Meteo,2013-09-03 18:49:00,
2013-09-03 14:54:00,89.0,73.0,29.89,SW,232,6.0,10.0,59,0.00,,,0.00,Meteo,2013-09-03 18:54:00,
2013-09-03 15:00:00,89.0,74.0,29.88,SSW,199,6.0,10.0,61,0.00,,,0.00,Meteo,2013-09-03 19:00:00,
2013-09-03 15:05:00,88.0,72.0,29.88,SSW,200,8.0,11.0,60,0.00,,,0.00,Meteo,2013-09-03 19:05:00,
2013-09-03 15:10:00,88.0,73.0,29.88,SSW,207,5.0,10.0,62,0.00,,,0.00,Meteo,2013-09-03 19:10:00,
2013-09-03 15:15:00,88.0,75.0,29.88,SSW,206,2.0,3.0,66,0.00,,,0.00,Meteo,2013-09-03 19:15:00,
2013-09-03 15:20:00,88.0,73.0,29.88,SSW,202,6.0,10.0,62,0.00,,,0.00,Meteo,2013-09-03 19:20:00,
2013-09-03 15:25:00,88.0,74.0,29.88,SSW,202,2.0,3.0,63,0.00,,,0.00,Meteo,2013-09-03 19:25:00,
2013-09-03 15:31:00,88.0,74.0,29.87,SSW,204,5.0,8.0,63,0.00,,,0.00,Meteo,2013-09-03 19:31:00,
2013-09-03 15:36:00,88.0,74.0,29.87,SSW,196,2.0,3.0,63,0.00,,,0.00,Meteo,2013-09-03 19:36:00,
2013-09-03 15:41:00,89.0,74.0,29.87,SW,231,1.0,5.0,62,0.00,,,0.00,Meteo,2013-09-03 19:41:00,
2013-09-03 15:46:00,90.0,72.0,29.86,SSW,196,2.0,4.0,56,0.00,,,0.00,Meteo,2013-09-03 19:46:00,
2013-09-03 15:51:00,90.0,72.0,29.86,SSW,195,2.0,5.0,55,0.00,,,0.00,Meteo,2013-09-03 19:51:00,
2013-09-03 15:56:00,91.0,73.0,29.86,SW,223,5.0,8.0,56,0.00,,,0.00,Meteo,2013-09-03 19:56:00,
2013-09-03 16:02:00,91.0,73.0,29.86,SW,235,5.0,8.0,55,0.00,,,0.00,Meteo,2013-09-03 20:02:00,
2013-09-03 16:07:00,91.0,71.0,29.86,SW,234,5.0,7.0,52,0.00,,,0.00,Meteo,2013-09-03 20:07:00,
2013-09-03 16:12:00,91.0,70.0,29.86,SE,137,1.0,2.0,51,0.00,,,0.00,Meteo,2013-09-03 20:12:00,
2013-09-03 16:17:00,92.0,73.0,29.86,SW,214,2.0,5.0,54,0.00,,,0.00,Meteo,2013-09-03 20:17:00,
2013-09-03 16:22:00,92.0,72.0,29.86,South,191,2.0,4.0,52,0.00,,,0.00,Meteo,2013-09-03 20:22:00,
2013-09-03 16:28:00,92.0,72.0,29.86,South,177,1.0,5.0,52,0.00,,,0.00,Meteo,2013-09-03 20:28:00,
2013-09-03 16:33:00,92.0,72.0,29.86,West,262,1.0,3.0,52,0.00,,,0.00,Meteo,2013-09-03 20:33:00,
2013-09-03 16:38:00,92.0,73.0,29.86,SW,228,2.0,4.0,54,0.00,,,0.00,Meteo,2013-09-03 20:38:00,
2013-09-03 16:43:00,91.0,73.0,29.86,SSW,206,2.0,3.0,56,0.00,,,0.00,Meteo,2013-09-03 20:43:00,
2013-09-03 16:48:00,90.0,74.0,29.86,SSW,206,1.0,2.0,60,0.00,,,0.00,Meteo,2013-09-03 20:48:00,
2013-09-03 16:53:00,89.0,71.0,29.86,SSW,206,2.0,3.0,56,0.00,,,0.00,Meteo,2013-09-03 20:53:00,
2013-09-03 16:59:00,89.0,73.0,29.85,North,0,0.0,0.0,60,0.00,,,0.00,Meteo,2013-09-03 20:59:00,
2013-09-03 17:04:00,89.0,75.0,29.85,North,0,0.0,0.0,63,0.00,,,0.00,Meteo,2013-09-03 21:04:00,
2013-09-03 17:09:00,88.0,73.0,29.85,SSW,198,3.0,5.0,61,0.00,,,0.00,Meteo,2013-09-03 21:09:00,
2013-09-03 17:14:00,88.0,73.0,29.85,SW,218,4.0,6.0,62,0.00,,,0.00,Meteo,2013-09-03 21:14:00,
2013-09-03 17:19:00,88.0,73.0,29.85,SSW,207,1.0,6.0,62,0.00,,,0.00,Meteo,2013-09-03 21:19:00,
2013-09-03 17:24:00,88.0,74.0,29.85,South,187,1.0,3.0,64,0.00,,,0.00,Meteo,2013-09-03 21:24:00,
2013-09-03 17:30:00,88.0,73.0,29.85,SSW,193,0.0,1.0,62,0.00,,,0.00,Meteo,2013-09-03 21:30:00,
2013-09-03 17:35:00,88.0,73.0,29.85,South,184,0.0,2.0,62,0.00,,,0.00,Meteo,2013-09-03 21:35:00,
2013-09-03 17:40:00,88.0,73.0,29.85,SSW,213,4.0,7.0,62,0.00,,,0.00,Meteo,2013-09-03 21:40:00,
2013-09-03 17:45:00,88.0,72.0,29.85,SSW,203,3.0,5.0,60,0.00,,,0.00,Meteo,2013-09-03 21:45:00,
2013-09-03 17:50:00,88.0,73.0,29.85,SSW,203,3.0,6.0,61,0.00,,,0.00,Meteo,2013-09-03 21:50:00,
2013-09-03 17:56:00,88.0,72.0,29.85,South,181,3.0,6.0,60,0.00,,,0.00,Meteo,2013-09-03 21:56:00,
2013-09-03 18:01:00,88.0,73.0,29.85,SW,218,2.0,3.0,61,0.00,,,0.00,Meteo,2013-09-03 22:01:00,
2013-09-03 18:06:00,88.0,74.0,29.85,South,177,2.0,3.0,63,0.00,,,0.00,Meteo,2013-09-03 22:06:00,
2013-09-03 18:11:00,88.0,74.0,29.85,South,179,3.0,7.0,63,0.00,,,0.00,Meteo,2013-09-03 22:11:00,
2013-09-03 18:16:00,87.0,74.0,29.85,South,188,3.0,7.0,65,0.00,,,0.00,Meteo,2013-09-03 22:16:00,
2013-09-03 18:21:00,86.0,74.0,29.85,SSW,201,8.0,12.0,67,0.00,,,0.00,Meteo,2013-09-03 22:21:00,
2013-09-03 18:27:00,86.0,74.0,29.85,SSW,203,2.0,4.0,68,0.00,,,0.00,Meteo,2013-09-03 22:27:00,
2013-09-03 18:32:00,85.0,73.0,29.85,SSW,202,4.0,7.0,67,0.00,,,0.00,Meteo,2013-09-03 22:32:00,
2013-09-03 18:37:00,85.0,74.0,29.85,SSW,202,6.0,10.0,69,0.00,,,0.00,Meteo,2013-09-03 22:37:00,
2013-09-03 18:42:00,85.0,74.0,29.85,SW,216,5.0,7.0,70,0.00,,,0.00,Meteo,2013-09-03 22:42:00,
2013-09-03 18:47:00,84.0,73.0,29.85,SSW,193,4.0,8.0,69,0.00,,,0.00,Meteo,2013-09-03 22:47:00,
2013-09-03 18:52:00,84.0,73.0,29.85,SSW,200,7.0,13.0,69,0.00,,,0.00,Meteo,2013-09-03 22:52:00,
2013-09-03 18:58:00,83.0,73.0,29.85,SSW,204,6.0,9.0,71,0.00,,,0.00,Meteo,2013-09-03 22:58:00,
2013-09-03 19:03:00,83.0,73.0,29.85,SSW,211,2.0,4.0,72,0.00,,,0.00,Meteo,2013-09-03 23:03:00,
2013-09-03 19:08:00,83.0,73.0,29.85,SSW,202,7.0,11.0,71,0.00,,,0.00,Meteo,2013-09-03 23:08:00,
2013-09-03 19:13:00,83.0,71.0,29.86,SSW,209,6.0,10.0,68,0.00,,,0.00,Meteo,2013-09-03 23:13:00,
2013-09-03 19:18:00,83.0,71.0,29.86,SSW,203,5.0,11.0,67,0.00,,,0.00,Meteo,2013-09-03 23:18:00,
2013-09-03 19:24:00,83.0,70.0,29.86,SW,222,6.0,8.0,65,0.00,,,0.00,Meteo,2013-09-03 23:24:00,
2013-09-03 19:29:00,83.0,70.0,29.87,SSW,199,1.0,3.0,65,0.00,,,0.00,Meteo,2013-09-03 23:29:00,
2013-09-03 19:34:00,82.0,70.0,29.87,SW,229,3.0,6.0,66,0.00,,,0.00,Meteo,2013-09-03 23:34:00,
2013-09-03 19:39:00,82.0,70.0,29.87,SSW,213,3.0,6.0,67,0.00,,,0.00,Meteo,2013-09-03 23:39:00,
2013-09-03 19:44:00,82.0,71.0,29.87,SSW,211,1.0,2.0,69,0.00,,,0.00,Meteo,2013-09-03 23:44:00,
2013-09-03 19:49:00,82.0,72.0,29.87,SSW,211,1.0,5.0,71,0.00,,,0.00,Meteo,2013-09-03 23:49:00,
2013-09-03 19:55:00,81.0,72.0,29.87,SSW,211,0.0,2.0,73,0.00,,,0.00,Meteo,2013-09-03 23:55:00,
2013-09-03 20:00:00,81.0,72.0,29.88,North,0,0.0,0.0,74,0.00,,,0.00,Meteo,2013-09-04 00:00:00,
2013-09-03 20:05:00,81.0,72.0,29.88,North,0,0.0,0.0,74,0.00,,,0.00,Meteo,2013-09-04 00:05:00,
2013-09-03 20:10:00,80.0,72.0,29.88,SSW,212,0.0,1.0,77,0.00,,,0.00,Meteo,2013-09-04 00:10:00,
2013-09-03 20:15:00,80.0,72.0,29.89,SSW,210,0.0,1.0,77,0.00,,,0.00,Meteo,2013-09-04 00:15:00,
2013-09-03 20:20:00,79.0,71.0,29.89,SSW,211,2.0,4.0,77,0.00,,,0.00,Meteo,2013-09-04 00:20:00,
2013-09-03 20:26:00,79.0,71.0,29.89,SSW,211,2.0,3.0,77,0.00,,,0.00,Meteo,2013-09-04 00:26:00,
2013-09-03 20:31:00,79.0,72.0,29.90,SSW,210,2.0,4.0,78,0.00,,,0.00,Meteo,2013-09-04 00:31:00,
2013-09-03 20:36:00,79.0,71.0,29.90,SSW,210,2.0,4.0,76,0.00,,,0.00,Meteo,2013-09-04 00:36:00,
2013-09-03 20:41:00,79.0,72.0,29.90,SSW,211,0.0,1.0,78,0.00,,,0.00,Meteo,2013-09-04 00:41:00,
2013-09-03 20:46:00,79.0,72.0,29.90,SSW,210,2.0,5.0,78,0.00,,,0.00,Meteo,2013-09-04 00:46:00,
2013-09-03 20:51:00,79.0,72.0,29.90,North,0,0.0,0.0,78,0.00,,,0.00,Meteo,2013-09-04 00:51:00,
2013-09-03 20:57:00,79.0,72.0,29.90,North,0,0.0,0.0,80,0.00,,,0.00,Meteo,2013-09-04 00:57:00,
2013-09-03 21:02:00,79.0,72.0,29.90,SSW,210,0.0,1.0,80,0.00,,,0.00,Meteo,2013-09-04 01:02:00,
2013-09-03 21:07:00,78.0,71.0,29.90,SSW,210,0.0,1.0,79,0.00,,,0.00,Meteo,2013-09-04 01:07:00,
2013-09-03 21:12:00,78.0,71.0,29.91,SSW,210,0.0,2.0,80,0.00,,,0.00,Meteo,2013-09-04 01:12:00,
2013-09-03 21:17:00,78.0,72.0,29.91,SSW,210,1.0,2.0,81,0.00,,,0.00,Meteo,2013-09-04 01:17:00,
2013-09-03 21:23:00,78.0,72.0,29.91,SSW,210,1.0,2.0,82,0.00,,,0.00,Meteo,2013-09-04 01:23:00,
2013-09-03 21:28:00,78.0,72.0,29.91,SSW,208,1.0,2.0,83,0.00,,,0.00,Meteo,2013-09-04 01:28:00,
2013-09-03 21:33:00,78.0,72.0,29.91,North,0,0.0,0.0,83,0.00,,,0.00,Meteo,2013-09-04 01:33:00,
2013-09-03 21:38:00,78.0,72.0,29.91,North,0,0.0,0.0,83,0.00,,,0.00,Meteo,2013-09-04 01:38:00,
2013-09-03 21:43:00,78.0,73.0,29.93,North,0,0.0,0.0,84,0.00,,,0.00,Meteo,2013-09-04 01:43:00,
2013-09-03 21:48:00,78.0,73.0,29.93,SSW,205,0.0,1.0,85,0.00,,,0.00,Meteo,2013-09-04 01:48:00,
2013-09-03 21:54:00,78.0,73.0,29.93,SSW,205,1.0,2.0,85,0.00,,,0.00,Meteo,2013-09-04 01:54:00,
2013-09-03 21:59:00,78.0,73.0,29.93,North,0,0.0,0.0,86,0.00,,,0.00,Meteo,2013-09-04 01:59:00,
2013-09-03 22:04:00,78.0,74.0,29.93,SSW,203,0.0,1.0,87,0.00,,,0.00,Meteo,2013-09-04 02:04:00,
2013-09-03 22:09:00,78.0,74.0,29.93,North,0,0.0,0.0,87,0.00,,,0.00,Meteo,2013-09-04 02:09:00,
2013-09-03 22:14:00,78.0,74.0,29.93,SSW,205,0.0,1.0,87,0.00,,,0.00,Meteo,2013-09-04 02:14:00,
2013-09-03 22:19:00,78.0,74.0,29.93,SSW,203,0.0,1.0,87,0.00,,,0.00,Meteo,2013-09-04 02:19:00,
2013-09-03 22:25:00,78.0,74.0,29.93,SSW,204,0.0,2.0,88,0.00,,,0.00,Meteo,2013-09-04 02:25:00,
2013-09-03 22:30:00,78.0,74.0,29.93,North,0,0.0,0.0,88,0.00,,,0.00,Meteo,2013-09-04 02:30:00,
2013-09-03 22:35:00,78.0,74.0,29.93,North,0,0.0,0.0,88,0.00,,,0.00,Meteo,2013-09-04 02:35:00,
2013-09-03 22:40:00,78.0,74.0,29.93,SSW,204,1.0,2.0,88,0.00,,,0.00,Meteo,2013-09-04 02:40:00,
2013-09-03 22:45:00,78.0,74.0,29.94,North,0,0.0,0.0,89,0.00,,,0.00,Meteo,2013-09-04 02:45:00,
2013-09-03 22:51:00,77.0,74.0,29.94,SSW,203,1.0,2.0,89,0.00,,,0.00,Meteo,2013-09-04 02:51:00,
2013-09-03 22:56:00,77.0,74.0,29.94,North,0,0.0,0.0,89,0.00,,,0.00,Meteo,2013-09-04 02:56:00,
2013-09-03 23:01:00,77.0,74.0,29.94,SSW,202,0.0,1.0,89,0.00,,,0.00,Meteo,2013-09-04 03:01:00,
2013-09-03 23:06:00,77.0,74.0,29.94,SSW,202,0.0,1.0,89,0.00,,,0.00,Meteo,2013-09-04 03:06:00,
2013-09-03 23:11:00,77.0,74.0,29.94,North,0,0.0,0.0,89,0.00,,,0.00,Meteo,2013-09-04 03:11:00,
2013-09-03 23:16:00,77.0,74.0,29.93,North,0,0.0,0.0,89,0.00,,,0.00,Meteo,2013-09-04 03:16:00,
2013-09-03 23:22:00,77.0,74.0,29.93,SSW,202,2.0,2.0,89,0.00,,,0.00,Meteo,2013-09-04 03:22:00,
2013-09-03 23:27:00,77.0,74.0,29.93,SSW,202,1.0,2.0,89,0.00,,,0.00,Meteo,2013-09-04 03:27:00,
2013-09-03 23:32:00,77.0,74.0,29.93,North,0,0.0,0.0,89,0.00,,,0.00,Meteo,2013-09-04 03:32:00,
2013-09-03 23:37:00,77.0,74.0,29.93,SSW,202,0.0,1.0,89,0.00,,,0.00,Meteo,2013-09-04 03:37:00,
2013-09-03 23:42:00,77.0,74.0,29.93,SSW,202,1.0,3.0,90,0.00,,,0.00,Meteo,2013-09-04 03:42:00,
2013-09-03 23:47:00,77.0,74.0,29.93,SSW,202,0.0,1.0,90,0.00,,,0.00,Meteo,2013-09-04 03:47:00,
2013-09-03 23:53:00,76.0,73.0,29.93,North,0,0.0,0.0,90,0.00,,,0.00,Meteo,2013-09-04 03:53:00,
2013-09-03 23:58:00,76.0,73.0,29.93,North,0,0.0,0.0,91,0.00,,,0.00,Meteo,2013-09-04 03:58:00,